Location: Lombard
(41.8800°N, 88.0080°W)
Time: 14:04:49
(UTC-06:00)

Transit 4A - Pass Details

Date: 05 December 2023
Orbit: 870 x 973 km, 66.8° (Epoch: 03 March)

Event Time Altitude Azimuth Distance (km) Brightness Sun altitude
Rises 20:41:07 0° 235° (SW) 3,658 11.4 -47.6°
Enters shadow 20:43:35 - 242° (WSW) 2,814 10.8 -48.0°
Reaches altitude 10° 20:43:53 10° 243° (WSW) 2,713 - -48.1°
Maximum altitude 20:49:43 37° 310° (NW) 1,458 - -49.1°
Drops below altitude 10° 20:55:32 10° 17° (NNE) 2,693 - -50.2°
Sets 20:58:17 0° 26° (NNE) 3,628 - -50.6°
